OK,30,45,644,30,2014-10-01T01:40:00,0,28071971,201453
OK,30,45,644,30,2014-10-01T01:45:00,0,28072414,201453
OK,30,45,644,30,2014-10-01T01:50:00,0,28072863,201453
OK,30,45,644,30,2014-10-01T01:55:00,0,28073310,201453
OK,30,45,644,30,2014-10-01T02:00:00,0,28073757,201453
OK,30,45,644,30,2014-10-01T02:05:00,0,28074076,201453
OK,30,45,644,30,2014-10-01T02:10:00,0,28074525,201453
OK,30,45,644,30,2014-10-01T02:15:00,0,28074965,201453
OK,30,45,644,30,2014-10-01T02:20:00,0,28075414,201453
OK,30,45,644,30,2014-10-01T02:25:00,0,28075863,201453
OK,30,45,644,30,2014-10-01T02:30:00,0,28076246,201453
OK,36,38,644,36,2014-10-01T02:35:00,1,28076695,201453
OK,35,39,644,35,2014-10-01T02:40:00,2,28077144,201453
OK,34,40,644,34,2014-10-01T02:45:00,0,28077593,201453
OK,34,40,644,34,2014-10-01T02:50:00,0,28077996,201453
OK,34,40,644,34,2014-10-01T02:55:00,0,28078445,201453
OK,34,40,644,34,2014-10-01T03:00:00,0,28078890,201453
OK,34,40,644,34,2014-10-01T03:05:00,0,28079338,201453
OK,34,40,644,34,2014-10-01T03:10:00,0,28079781,201453
OK,34,40,644,34,2014-10-01T03:15:00,0,28080230,201453
OK,34,40,644,34,2014-10-01T03:20:00,0,28080564,201453
OK,26,52,644,26,2014-10-01T03:25:00,1,28081013,201453
OK,33,41,644,33,2014-10-01T03:30:00,2,28081462,201453
OK,41,33,644,41,2014-10-01T03:35:00,1,28081909,201453
OK,32,42,644,32,2014-10-01T03:40:00,2,28082358,201453
OK,39,35,644,39,2014-10-01T03:45:00,1,28082791,201453
OK,40,34,644,40,2014-10-01T03:50:00,2,28083223,201453
OK,27,50,644,27,2014-10-01T03:55:00,4,28083672,201453
OK,33,41,644,33,2014-10-01T04:00:00,5,28084121,201453
OK,29,47,644,29,2014-10-01T04:05:00,2,28084562,201453
OK,28,48,644,28,2014-10-01T04:10:00,2,28084987,201453
OK,26,52,644,26,2014-10-01T04:15:00,3,28085436,201453
OK,26,52,644,26,2014-10-01T04:20:00,5,28085881,201453
OK,26,52,644,26,2014-10-01T04:25:00,9,28086330,201453
OK,25,54,644,25,2014-10-01T04:30:00,8,28086772,201453
OK,26,52,644,26,2014-10-01T04:35:00,4,28087221,201453
OK,27,50,644,27,2014-10-01T04:40:00,8,28087666,201453
OK,28,48,644,28,2014-10-01T04:45:00,7,28088115,201453
OK,29,47,644,29,2014-10-01T04:50:00,11,28088539,201453
OK,28,48,644,28,2014-10-01T04:55:00,7,28088988,201453
OK,26,52,644,26,2014-10-01T05:00:00,5,28089418,201453
OK,28,48,644,28,2014-10-01T05:05:00,7,28089867,201453
OK,31,44,644,31,2014-10-01T05:10:00,14,28090316,201453
OK,34,40,644,34,2014-10-01T05:15:00,13,28090660,201453
OK,41,33,644,41,2014-10-01T05:20:00,19,28091109,201453
OK,36,38,644,36,2014-10-01T05:25:00,25,28091558,201453
OK,34,40,644,34,2014-10-01T05:30:00,16,28091975,201453
OK,35,39,644,35,2014-10-01T05:35:00,22,28092424,201453
OK,48,28,644,48,2014-10-01T05:40:00,28,28092868,201453
OK,50,27,644,50,2014-10-01T05:45:00,24,28093309,201453
OK,67,20,644,67,2014-10-01T05:50:00,28,28093740,201453
OK,50,27,644,50,2014-10-01T05:55:00,22,28094189,201453
OK,40,34,644,40,2014-10-01T06:00:00,16,28094600,201453
OK,39,35,644,39,2014-10-01T06:05:00,20,28095045,201453
OK,30,45,644,30,2014-10-01T06:10:00,13,28095492,201453
OK,31,44,644,31,2014-10-01T06:15:00,8,28095941,201453
OK,39,35,644,39,2014-10-01T06:20:00,11,28096354,201453
OK,35,39,644,35,2014-10-01T06:25:00,14,28096803,201453
OK,30,45,644,30,2014-10-01T06:30:00,12,28097237,201453
OK,31,44,644,31,2014-10-01T06:35:00,10,28097686,201453
OK,40,34,644,40,2014-10-01T06:40:00,10,28098135,201453
OK,36,38,644,36,2014-10-01T06:45:00,9,28098572,201453
OK,30,45,644,30,2014-10-01T06:50:00,15,28099016,201453
OK,27,50,644,27,2014-10-01T06:55:00,13,28099464,201453
OK,26,52,644,26,2014-10-01T07:00:00,6,28099807,201453
OK,26,52,644,26,2014-10-01T07:05:00,6,28100256,201453
OK,31,44,644,31,2014-10-01T07:10:00,7,28100563,201453
OK,57,24,644,57,2014-10-01T07:15:00,8,28101012,201453
OK,63,21,644,63,2014-10-01T07:20:00,12,28101383,201453
OK,52,26,644,52,2014-10-01T07:25:00,12,28101832,201453
OK,40,34,644,40,2014-10-01T07:30:00,6,28102268,201453
OK,30,45,644,30,2014-10-01T07:35:00,7,28102717,201453
OK,66,20,644,66,2014-10-01T07:40:00,6,28103144,201453
OK,55,24,644,55,2014-10-01T07:45:00,4,28103591,201453
OK,39,35,644,39,2014-10-01T07:50:00,4,28104036,201453
OK,58,23,644,58,2014-10-01T07:55:00,7,28104481,201453
OK,66,20,644,66,2014-10-01T08:00:00,13,28104922,201453
OK,64,21,644,64,2014-10-01T08:05:00,9,28105367,201453
OK,42,32,644,42,2014-10-01T08:10:00,8,28105807,201453
OK,40,34,644,40,2014-10-01T08:15:00,5,28106256,201453
OK,40,34,644,40,2014-10-01T08:20:00,2,28106693,201453
OK,46,29,644,46,2014-10-01T08:25:00,5,28107099,201453
OK,50,27,644,50,2014-10-01T08:30:00,11,28107531,201453
OK,30,45,644,30,2014-10-01T08:35:00,7,28107980,201453
OK,46,29,644,46,2014-10-01T08:40:00,9,28108419,201453
OK,53,25,644,53,2014-10-01T08:45:00,7,28108868,201453
OK,39,35,644,39,2014-10-01T08:50:00,5,28109296,201453
OK,25,54,644,25,2014-10-01T08:55:00,3,28109745,201453
OK,29,47,644,29,2014-10-01T09:00:00,2,28110088,201453
OK,45,30,644,45,2014-10-01T09:05:00,4,28110537,201453
OK,60,22,644,60,2014-10-01T09:10:00,3,28110960,201453
OK,47,29,644,47,2014-10-01T09:15:00,4,28111409,201453
OK,48,28,644,48,2014-10-01T09:20:00,6,28111838,201453
OK,54,25,644,54,2014-10-01T09:25:00,3,28112287,201453
OK,34,40,644,34,2014-10-01T09:30:00,7,28112628,201453
OK,53,25,644,53,2014-10-01T09:35:00,10,28113077,201453
OK,59,23,644,59,2014-10-01T09:40:00,10,28113501,201453
OK,55,24,644,55,2014-10-01T09:45:00,6,28113950,201453
OK,58,23,644,58,2014-10-01T09:50:00,1,28114382,201453
OK,53,25,644,53,2014-10-01T09:55:00,7,28114831,201453
OK,54,25,644,54,2014-10-01T10:00:00,9,28115185,201453
OK,50,27,644,50,2014-10-01T10:05:00,10,28115634,201453
OK,50,27,644,50,2014-10-01T10:10:00,8,28116046,201453
OK,51,26,644,51,2014-10-01T10:15:00,10,28116495,201453
OK,47,29,644,47,2014-10-01T10:20:00,5,28116903,201453
OK,51,26,644,51,2014-10-01T10:25:00,4,28117352,201453
OK,49,27,644,49,2014-10-01T10:30:00,9,28117777,201453
OK,45,30,644,45,2014-10-01T10:35:00,10,28118226,201453
OK,48,28,644,48,2014-10-01T10:40:00,8,28118671,201453
OK,54,25,644,54,2014-10-01T10:45:00,5,28119118,201453
OK,58,23,644,58,2014-10-01T10:50:00,5,28119562,201453
OK,55,24,644,55,2014-10-01T10:55:00,8,28120010,201453
OK,45,30,644,45,2014-10-01T11:00:00,5,28120458,201453
OK,42,32,644,42,2014-10-01T11:05:00,2,28120907,201453
OK,39,35,644,39,2014-10-01T11:10:00,7,28121290,201453
OK,39,35,644,39,2014-10-01T11:15:00,7,28121739,201453
OK,47,29,644,47,2014-10-01T11:20:00,4,28122177,201453
OK,50,27,644,50,2014-10-01T11:25:00,3,28122626,201453
OK,50,27,644,50,2014-10-01T11:30:00,5,28123067,201453
OK,52,26,644,52,2014-10-01T11:35:00,4,28123516,201453
OK,51,26,644,51,2014-10-01T11:40:00,7,28123948,201453
OK,43,31,644,43,2014-10-01T11:45:00,9,28124397,201453
OK,42,32,644,42,2014-10-01T11:50:00,5,28124799,201453
OK,44,31,644,44,2014-10-01T11:55:00,5,28125248,201453
OK,60,22,644,60,2014-10-01T12:00:00,7,28125677,201453
OK,58,23,644,58,2014-10-01T12:05:00,7,28126126,201453
OK,58,23,644,58,2014-10-01T12:10:00,11,28126478,201453
OK,46,29,644,46,2014-10-01T12:15:00,6,28126927,201453
OK,46,29,644,46,2014-10-01T12:20:00,4,28127376,201453
OK,61,22,644,61,2014-10-01T12:25:00,1,28127825,201453
OK,65,21,644,65,2014-10-01T12:30:00,1,28128253,201453
OK,57,24,644,57,2014-10-01T12:35:00,6,28128702,201453
OK,56,24,644,56,2014-10-01T12:40:00,7,28129137,201453
OK,31,44,644,31,2014-10-01T12:45:00,6,28129586,201453
OK,35,39,644,35,2014-10-01T12:50:00,6,28130020,201453
OK,35,39,644,35,2014-10-01T12:55:00,3,28130469,201453
OK,54,25,644,54,2014-10-01T13:00:00,4,28130897,201453
OK,35,39,644,35,2014-10-01T13:05:00,9,28131346,201453
OK,36,38,644,36,2014-10-01T13:10:00,7,28131783,201453
OK,35,39,644,35,2014-10-01T13:15:00,5,28132232,201453
OK,29,47,644,29,2014-10-01T13:20:00,6,28132670,201453
OK,27,50,644,27,2014-10-01T13:25:00,8,28133117,201453
OK,30,45,644,30,2014-10-01T13:30:00,9,28133555,201453
OK,33,41,644,33,2014-10-01T13:35:00,5,28134004,201453
OK,56,24,644,56,2014-10-01T13:40:00,2,28134443,201453
OK,38,36,644,38,2014-10-01T13:45:00,2,28134892,201453
OK,28,48,644,28,2014-10-01T13:50:00,3,28135311,201453
OK,31,44,644,31,2014-10-01T13:55:00,6,28135760,201453
OK,28,48,644,28,2014-10-01T14:00:00,4,28136197,201453
OK,29,47,644,29,2014-10-01T14:05:00,2,28136646,201453
OK,29,47,644,29,2014-10-01T14:10:00,3,28137086,201453
OK,20,68,644,20,2014-10-01T14:15:00,1,28137535,201453
OK,33,41,644,33,2014-10-01T14:20:00,4,28137969,201453
OK,30,45,644,30,2014-10-01T14:25:00,9,28138418,201453
OK,28,48,644,28,2014-10-01T14:30:00,9,28138846,201453
OK,30,45,644,30,2014-10-01T14:35:00,8,28139295,201453
OK,33,41,644,33,2014-10-01T14:40:00,3,28139706,201453
OK,29,47,644,29,2014-10-01T14:45:00,2,28140155,201453
OK,32,42,644,32,2014-10-01T14:50:00,5,28140597,201453
OK,30,45,644,30,2014-10-01T14:55:00,7,28141046,201453
OK,28,48,644,28,2014-10-01T15:00:00,5,28141472,201453
OK,38,36,644,38,2014-10-01T15:05:00,2,28141921,201453
OK,59,23,644,59,2014-10-01T15:10:00,6,28142349,201453
OK,60,22,644,60,2014-10-01T15:15:00,8,28142798,201453
OK,52,26,644,52,2014-10-01T15:20:00,4,28143225,201453
OK,52,26,644,52,2014-10-01T15:25:00,6,28143674,201453
OK,45,30,644,45,2014-10-01T15:30:00,12,28144122,201453
OK,38,36,644,38,2014-10-01T15:35:00,7,28144571,201453
OK,39,35,644,39,2014-10-01T15:40:00,5,28144992,201453
OK,47,29,644,47,2014-10-01T15:45:00,3,28145406,201453
OK,49,27,644,49,2014-10-01T15:50:00,3,28145855,201453
OK,65,21,644,65,2014-10-01T15:55:00,7,28146304,201453
OK,67,20,644,67,2014-10-01T16:00:00,5,28146753,201453
OK,55,24,644,55,2014-10-01T16:05:00,6,28147161,201453
OK,55,24,644,55,2014-10-01T16:10:00,4,28147605,201453
OK,45,30,644,45,2014-10-01T16:15:00,4,28148054,201453
OK,49,27,644,49,2014-10-01T16:20:00,2,28148455,201453
OK,59,23,644,59,2014-10-01T16:25:00,1,28148904,201453
OK,34,40,644,34,2014-10-01T16:30:00,1,28149343,201453
OK,51,26,644,51,2014-10-01T16:35:00,7,28149792,201453
OK,51,26,644,51,2014-10-01T16:40:00,6,28150218,201453
OK,48,28,644,48,2014-10-01T16:45:00,1,28150667,201453
OK,45,30,644,45,2014-10-01T16:50:00,2,28151085,201453
OK,34,40,644,34,2014-10-01T16:55:00,3,28151534,201453
OK,55,24,644,55,2014-10-01T17:05:00,2,28151983,201453
OK,49,27,644,49,2014-10-01T17:10:00,4,28152432,201453
OK,51,26,644,51,2014-10-01T17:15:00,3,28152878,201453
OK,49,27,644,49,2014-10-01T17:20:00,4,28153325,201453
OK,44,31,644,44,2014-10-01T17:25:00,4,28153774,201453
OK,49,27,644,49,2014-10-01T17:30:00,5,28154184,201453
OK,54,25,644,54,2014-10-01T17:35:00,4,28154633,201453
OK,46,29,644,46,2014-10-01T17:40:00,1,28155075,201453
OK,28,48,644,28,2014-10-01T17:45:00,3,28155523,201453
OK,28,48,644,28,2014-10-01T17:50:00,5,28155941,201453
OK,50,27,644,50,2014-10-01T17:55:00,2,28156390,201453
OK,33,41,644,33,2014-10-01T18:00:00,2,28156838,201453
OK,41,33,644,41,2014-10-01T18:05:00,4,28157277,201453
OK,45,30,644,45,2014-10-01T18:10:00,4,28157707,201453
OK,38,36,644,38,2014-10-01T18:15:00,2,28158155,201453
OK,65,21,644,65,2014-10-01T18:20:00,1,28158599,201453
OK,65,21,644,65,2014-10-01T18:25:00,1,28159045,201453
OK,47,29,644,47,2014-10-01T18:30:00,1,28159491,201453
OK,43,31,644,43,2014-10-01T18:35:00,4,28159826,201453
OK,39,35,644,39,2014-10-01T18:40:00,3,28160275,201453
OK,46,29,644,46,2014-10-01T18:45:00,1,28160724,201453
OK,46,29,644,46,2014-10-01T18:50:00,0,28161162,201453
OK,47,29,644,47,2014-10-01T18:55:00,1,28161611,201453
OK,26,52,644,26,2014-10-01T19:00:00,2,28162028,201453
OK,37,37,644,37,2014-10-01T19:05:00,3,28162477,201453
OK,40,34,644,40,2014-10-01T19:10:00,2,28162871,201453
OK,48,28,644,48,2014-10-01T19:15:00,2,28163310,201453
OK,38,36,644,38,2014-10-01T19:20:00,2,28163758,201453
OK,26,52,644,26,2014-10-01T19:25:00,1,28164207,201453
OK,39,35,644,39,2014-10-01T19:30:00,1,28164638,201453
OK,29,47,644,29,2014-10-01T19:35:00,4,28165087,201453
OK,29,47,644,29,2014-10-01T19:40:00,2,28165512,201453
OK,45,30,644,45,2014-10-01T19:45:00,1,28165960,201453
OK,49,27,644,49,2014-10-01T19:50:00,1,28166401,201453
OK,30,45,644,30,2014-10-01T19:55:00,4,28166763,201453
OK,34,40,644,34,2014-10-01T20:00:00,3,28167212,201453
OK,33,41,644,33,2014-10-01T20:05:00,0,28167641,201453
OK,28,48,644,28,2014-10-01T20:10:00,1,28168074,201453
OK,28,48,644,28,2014-10-01T20:15:00,1,28168523,201453
OK,28,48,644,28,2014-10-01T20:20:00,0,28168968,201453
OK,28,48,644,28,2014-10-01T20:25:00,0,28169417,201453
OK,33,41,644,33,2014-10-01T20:30:00,2,28169865,201453
OK,54,25,644,54,2014-10-01T20:35:00,2,28170291,201453
OK,74,18,644,74,2014-10-01T20:40:00,1,28170736,201453
OK,21,65,644,21,2014-10-01T20:45:00,1,28171184,201453
OK,48,28,644,48,2014-10-01T20:50:00,1,28171621,201453
OK,36,38,644,36,2014-10-01T20:55:00,1,28172067,201453
OK,31,44,644,31,2014-10-01T21:00:00,2,28172515,201453
OK,26,52,644,26,2014-10-01T21:05:00,2,28172961,201453
OK,27,50,644,27,2014-10-01T21:10:00,0,28173407,201453
OK,27,50,644,27,2014-10-01T21:15:00,0,28173856,201453
OK,37,37,644,37,2014-10-01T21:20:00,1,28174297,201453
OK,37,37,644,37,2014-10-01T21:25:00,0,28174746,201453
OK,40,34,644,40,2014-10-01T21:30:00,1,28175172,201453
OK,40,34,644,40,2014-10-01T21:35:00,0,28175568,201453
OK,40,34,644,40,2014-10-01T21:40:00,0,28176017,201453
OK,40,34,644,40,2014-10-01T21:45:00,0,28176466,201453
OK,40,34,644,40,2014-10-01T21:50:00,0,28176915,201453
OK,40,34,644,40,2014-10-01T21:55:00,0,28177271,201453
OK,40,34,644,40,2014-10-01T22:00:00,0,28177711,201453
OK,40,34,644,40,2014-10-01T22:05:00,0,28178157,201453
OK,40,34,644,40,2014-10-01T22:10:00,0,28178606,201453
OK,40,34,644,40,2014-10-01T22:15:00,0,28179053,201453
OK,40,34,644,40,2014-10-01T22:20:00,0,28179487,201453
OK,40,34,644,40,2014-10-01T22:25:00,0,28179930,201453
OK,40,34,644,40,2014-10-01T22:30:00,0,28180377,201453
OK,40,34,644,40,2014-10-01T22:35:00,0,28180775,201453
OK,40,34,644,40,2014-10-01T22:40:00,0,28181224,201453
OK,40,34,644,40,2014-10-01T22:45:00,0,28181648,201453
OK,40,34,644,40,2014-10-01T22:50:00,0,28182096,201453
OK,40,34,644,40,2014-10-01T22:55:00,0,28182543,201453
OK,40,34,644,40,2014-10-01T23:00:00,0,28182992,201453
OK,40,34,644,40,2014-10-01T23:05:00,0,28183409,201453
OK,40,34,644,40,2014-10-01T23:10:00,0,28183842,201453
OK,40,34,644,40,2014-10-01T23:15:00,0,28184287,201453
OK,44,31,644,44,2014-10-01T23:20:00,1,28184736,201453
OK,23,59,644,23,2014-10-01T23:25:00,2,28185171,201453
OK,23,59,644,23,2014-10-01T23:30:00,0,28185619,201453
OK,23,59,644,23,2014-10-01T23:35:00,0,28186048,201453
OK,23,59,644,23,2014-10-01T23:40:00,0,28186442,201453
OK,23,59,644,23,2014-10-01T23:45:00,0,28186891,201453
OK,23,59,644,23,2014-10-01T23:50:00,0,28187288,201453
OK,23,59,644,23,2014-10-01T23:55:00,0,28187731,201453
OK,23,59,644,23,2014-10-02T00:00:00,0,28188180,201453
OK,23,59,644,23,2014-10-02T00:05:00,0,28188620,201453
OK,23,59,644,23,2014-10-02T00:10:00,0,28189057,201453
OK,23,59,644,23,2014-10-02T00:15:00,0,28189506,201453
OK,23,59,644,23,2014-10-02T00:20:00,0,28189928,201453
OK,23,59,644,23,2014-10-02T00:25:00,0,28190374,201453
OK,23,59,644,23,2014-10-02T00:30:00,0,28190730,201453
OK,47,29,644,47,2014-10-02T00:35:00,0,28191179,201453
OK,47,29,644,47,2014-10-02T00:40:00,0,28191628,201453
OK,47,29,644,47,2014-10-02T00:45:00,0,28191934,201453
OK,47,29,644,47,2014-10-02T00:50:00,0,28192383,201453
OK,47,29,644,47,2014-10-02T00:55:00,0,28192816,201453
OK,47,29,644,47,2014-10-02T01:00:00,0,28193240,201453
OK,47,29,644,47,2014-10-02T01:05:00,0,28193627,201453
OK,47,29,644,47,2014-10-02T01:10:00,0,28194076,201453
OK,47,29,644,47,2014-10-02T01:15:00,0,28194525,201453
OK,47,29,644,47,2014-10-02T01:20:00,0,28194965,201453
OK,47,29,644,47,2014-10-02T01:25:00,0,28195210,201453
OK,0,0,644,0,2014-10-02T01:30:00,0,28195659,201453
OK,47,29,644,47,2014-10-02T01:35:00,0,28196108,201453
OK,47,29,644,47,2014-10-02T01:40:00,0,28196392,201453
OK,47,29,644,47,2014-10-02T01:45:00,0,28196841,201453
OK,47,29,644,47,2014-10-02T01:50:00,0,28197264,201453
OK,47,29,644,47,2014-10-02T01:55:00,0,28197713,201453
OK,47,29,644,47,2014-10-02T02:00:00,0,28198161,201453
OK,47,29,644,47,2014-10-02T02:05:00,0,28198609,201453
OK,47,29,644,47,2014-10-02T02:10:00,0,28199058,201453
OK,47,29,644,47,2014-10-02T02:15:00,0,28199430,201453
OK,47,29,644,47,2014-10-02T02:20:00,0,28199872,201453
OK,47,29,644,47,2014-10-02T02:25:00,0,28200314,201453
OK,47,29,644,47,2014-10-02T02:30:00,0,28200757,201453
OK,47,29,644,47,2014-10-02T02:35:00,0,28201206,201453
OK,31,44,644,31,2014-10-02T02:45:00,0,28201637,201453
OK,27,50,644,27,2014-10-02T02:50:00,1,28202086,201453
OK,27,50,644,27,2014-10-02T02:55:00,0,28202535,201453
OK,27,50,644,27,2014-10-02T03:00:00,0,28202977,201453
OK,27,50,644,27,2014-10-02T03:05:00,0,28203425,201453
OK,27,50,644,27,2014-10-02T03:15:00,0,28203860,201453
OK,42,32,644,42,2014-10-02T03:30:00,0,28204309,201453
OK,37,37,644,37,2014-10-02T03:35:00,1,28204758,201453
OK,37,37,644,37,2014-10-02T03:40:00,0,28205207,201453
OK,32,42,644,32,2014-10-02T03:45:00,0,28205635,201453
OK,32,42,644,32,2014-10-02T03:50:00,0,28206066,201453
OK,32,42,644,32,2014-10-02T03:55:00,0,28206465,201453
OK,40,34,644,40,2014-10-02T04:00:00,2,28206914,201453
OK,40,34,644,40,2014-10-02T04:05:00,0,28207363,201453
OK,40,34,644,40,2014-10-02T04:10:00,0,28207782,201453
OK,40,34,644,40,2014-10-02T04:15:00,0,28208231,201453
OK,29,47,644,29,2014-10-02T04:20:00,2,28208658,201453
OK,29,47,644,29,2014-10-02T04:25:00,0,28209107,201453
OK,24,57,644,24,2014-10-02T04:30:00,9,28209545,201453
OK,24,57,644,24,2014-10-02T04:35:00,4,28209994,201453
OK,27,50,644,27,2014-10-02T04:40:00,1,28210417,201453
OK,27,50,644,27,2014-10-02T04:45:00,0,28210866,201453
OK,27,50,644,27,2014-10-02T04:50:00,0,28211291,201453
OK,30,45,644,30,2014-10-02T04:55:00,7,28211735,201453
OK,30,45,644,30,2014-10-02T05:00:00,4,28212113,201453
OK,29,47,644,29,2014-10-02T05:05:00,6,28212562,201453
OK,29,47,644,29,2014-10-02T05:10:00,2,28212991,201453
OK,44,31,644,44,2014-10-02T05:15:00,6,28213440,201453
OK,53,25,644,53,2014-10-02T05:20:00,0,28213878,201453
OK,32,42,644,32,2014-10-02T05:25:00,13,28214327,201453
OK,32,42,644,32,2014-10-02T05:30:00,2,28214740,201453
OK,33,41,644,33,2014-10-02T05:35:00,0,28215189,201453
OK,54,25,644,54,2014-10-02T05:40:00,23,28215605,201453
OK,50,27,644,50,2014-10-02T05:45:00,7,28216054,201453
OK,50,27,644,50,2014-10-02T05:50:00,0,28216393,201453
OK,39,35,644,39,2014-10-02T05:55:00,24,28216833,201453
OK,37,37,644,37,2014-10-02T06:00:00,21,28217280,201453
OK,43,31,644,43,2014-10-02T06:05:00,10,28217729,201453
OK,46,29,644,46,2014-10-02T06:10:00,0,28218168,201453
OK,29,47,644,29,2014-10-02T06:15:00,12,28218617,201453
OK,45,30,644,45,2014-10-02T06:20:00,15,28219037,201453
OK,33,41,644,33,2014-10-02T06:25:00,12,28219486,201453
OK,33,41,644,33,2014-10-02T06:30:00,13,28219859,201453
OK,34,40,644,34,2014-10-02T06:35:00,6,28220308,201453
OK,33,41,644,33,2014-10-02T06:40:00,1,28220742,201453
OK,27,50,644,27,2014-10-02T06:45:00,2,28221191,201453
OK,29,47,644,29,2014-10-02T07:00:00,4,28221858,201453
OK,27,50,644,27,2014-10-02T07:05:00,4,28222004,201453
OK,31,44,644,31,2014-10-02T07:10:00,4,28222452,201453
OK,46,29,644,46,2014-10-02T07:15:00,2,28222901,201453
OK,28,48,644,28,2014-10-02T07:20:00,0,28223332,201453
OK,55,24,644,55,2014-10-02T07:25:00,7,28223767,201453
OK,99,13,644,99,2014-10-02T07:30:00,2,28224215,201453
OK,59,23,644,59,2014-10-02T07:35:00,5,28224570,201453
OK,59,23,644,59,2014-10-02T07:40:00,1,28225019,201453
OK,28,48,644,28,2014-10-02T07:50:00,6,28225790,201453
OK,26,52,644,26,2014-10-02T07:55:00,3,28226239,201453
OK,65,21,644,65,2014-10-02T08:00:00,1,28226680,201453
OK,54,25,644,54,2014-10-02T08:05:00,7,28227129,201453
OK,51,26,644,51,2014-10-02T08:10:00,0,28227544,201453
OK,51,26,644,51,2014-10-02T08:15:00,5,28227993,201453
OK,32,42,644,32,2014-10-02T08:20:00,1,28228352,201453
OK,59,23,644,59,2014-10-02T08:25:00,4,28228801,201453
OK,60,22,644,60,2014-10-02T08:30:00,0,28229211,201453
OK,29,47,644,29,2014-10-02T08:35:00,8,28229660,201453
OK,29,47,644,29,2014-10-02T08:40:00,5,28230010,201453
OK,29,47,644,29,2014-10-02T08:45:00,0,28230459,201453
OK,56,24,644,56,2014-10-02T08:50:00,3,28230825,201453
OK,56,24,644,56,2014-10-02T08:55:00,1,28231272,201453
OK,31,44,644,31,2014-10-02T09:00:00,5,28231697,201453
OK,31,44,644,31,2014-10-02T09:05:00,1,28232146,201453
OK,45,30,644,45,2014-10-02T09:15:00,8,28232488,201453
OK,45,30,644,45,2014-10-02T09:20:00,2,28232937,201453
OK,47,29,644,47,2014-10-02T09:25:00,6,28233386,201453
OK,105,13,644,105,2014-10-02T09:30:00,1,28233810,201453
OK,29,47,644,29,2014-10-02T09:35:00,8,28234259,201453
OK,37,37,644,37,2014-10-02T09:40:00,3,28234592,201453
OK,36,38,644,36,2014-10-02T09:45:00,4,28235041,201453
OK,36,38,644,36,2014-10-02T09:50:00,4,28235468,201453
OK,58,23,644,58,2014-10-02T09:55:00,8,28235917,201453
OK,59,23,644,59,2014-10-02T10:00:00,2,28236360,201453
OK,58,23,644,58,2014-10-02T10:05:00,0,28236807,201453
OK,60,22,644,60,2014-10-02T10:10:00,3,28237209,201453
OK,73,18,644,73,2014-10-02T10:15:00,2,28237657,201453
OK,29,47,644,29,2014-10-02T10:20:00,3,28238106,201453
OK,43,31,644,43,2014-10-02T10:25:00,5,28238553,201453
OK,128,10,644,128,2014-10-02T10:30:00,1,28238994,201453
OK,35,39,644,35,2014-10-02T10:35:00,11,28239443,201453
OK,49,27,644,49,2014-10-02T10:40:00,12,28239873,201453
OK,46,29,644,46,2014-10-02T10:45:00,11,28240322,201453
OK,34,40,644,34,2014-10-02T10:50:00,4,28240766,201453
OK,45,30,644,45,2014-10-02T10:55:00,4,28241215,201453
OK,55,24,644,55,2014-10-02T11:00:00,1,28241647,201453
OK,55,24,644,55,2014-10-02T11:05:00,0,28242095,201453
OK,40,34,644,40,2014-10-02T11:10:00,7,28242491,201453
OK,58,23,644,58,2014-10-02T11:15:00,4,28242940,201453
OK,63,21,644,63,2014-10-02T11:20:00,4,28243389,201453
OK,32,42,644,32,2014-10-02T11:25:00,0,28243714,201453
OK,32,42,644,32,2014-10-02T11:30:00,0,28244152,201453
OK,30,45,644,30,2014-10-02T11:35:00,4,28244581,201453
OK,29,47,644,29,2014-10-02T11:40:00,1,28245030,201453
OK,29,47,644,29,2014-10-02T11:45:00,0,28245479,201453
OK,43,31,644,43,2014-10-02T11:50:00,10,28245885,201453
OK,41,33,644,41,2014-10-02T11:55:00,12,28246334,201453
OK,38,36,644,38,2014-10-02T12:00:00,8,28246771,201453
OK,42,32,644,42,2014-10-02T12:05:00,4,28247219,201453
OK,43,31,644,43,2014-10-02T12:10:00,0,28247666,201453
OK,53,25,644,53,2014-10-02T12:15:00,6,28248096,201453
OK,56,24,644,56,2014-10-02T12:20:00,3,28248545,201453
OK,36,38,644,36,2014-10-02T12:25:00,4,28248992,201453
OK,34,40,644,34,2014-10-02T12:30:00,2,28249420,201453
OK,56,24,644,56,2014-10-02T12:35:00,7,28249864,201453
OK,29,47,644,29,2014-10-02T12:45:00,14,28250681,201453
OK,27,50,644,27,2014-10-02T12:50:00,6,28251459,201453
OK,35,39,644,35,2014-10-02T13:00:00,5,28251499,201453
OK,27,50,644,27,2014-10-02T13:20:00,5,28251541,201453
OK,29,47,644,29,2014-10-02T13:30:00,8,28252006,201453
OK,29,47,644,29,2014-10-02T13:35:00,3,28252143,201453
OK,29,47,644,29,2014-10-02T13:40:00,0,28252590,201453
OK,28,48,644,28,2014-10-02T13:45:00,12,28253032,201453
OK,28,48,644,28,2014-10-02T13:50:00,7,28253449,201453
OK,30,45,644,30,2014-10-02T13:55:00,7,28253898,201453
OK,31,44,644,31,2014-10-02T14:10:00,7,28254629,201453
OK,31,44,644,31,2014-10-02T14:15:00,10,28254752,201453
OK,33,41,644,33,2014-10-02T14:20:00,6,28255201,201453
OK,43,31,644,43,2014-10-02T14:25:00,3,28255650,201453
OK,31,44,644,31,2014-10-02T14:30:00,9,28256078,201453
OK,24,57,644,24,2014-10-02T14:35:00,0,28256527,201453
OK,33,41,644,33,2014-10-02T14:40:00,2,28256955,201453
OK,27,50,644,27,2014-10-02T14:45:00,2,28257404,201453
OK,27,50,644,27,2014-10-02T14:50:00,6,28257845,201453
OK,27,50,644,27,2014-10-02T14:55:00,6,28258293,201453
OK,32,42,644,32,2014-10-02T15:00:00,4,28258726,201453
OK,33,41,644,33,2014-10-02T15:05:00,4,28259172,201453
OK,35,39,644,35,2014-10-02T15:10:00,2,28259620,201453
OK,50,27,644,50,2014-10-02T15:15:00,1,28260068,201453